Location: Unspecified
(0.0000°N, 0.0000°E)
Time: 00:54:57
(UTC+02:00)

Palapa 6 Rocket - Visible Passes

Search period start: 30 July 2014 00:00
Search period end: 09 August 2014 00:00
Orbit: 486 x 1236 km, 22.7° (Epoch: 29 July)

Date Brightness Start Highest point End Pass type
(mag) Time Alt. Az. Time Alt. Az. Time Alt. Az.
30 Jul 6.5 04:34:57 16° ENE 04:34:57 16° ENE 04:36:04 10° ENE visible
30 Jul 5.1 06:17:01 29° NW 06:18:30 32° NNW 06:24:04 10° NE visible
31 Jul 6.7 04:23:51 13° ENE 04:23:51 13° ENE 04:24:26 10° ENE visible
31 Jul 5.3 06:05:54 28° NW 06:06:47 29° NNW 06:12:23 10° NE visible
01 Aug 6.9 04:12:42 10° ENE 04:12:42 10° ENE 04:12:44 10° ENE visible
01 Aug 5.5 05:54:46 27° NNW 05:55:03 27° NNW 06:00:39 10° NNE visible
01 Aug 6.3 07:44:32 10° NNW 07:45:03 10° NNW 07:45:33 10° NNW visible
02 Aug 5.7 05:43:36 25° NNW 05:43:36 25° NNW 05:48:53 10° NNE visible
03 Aug 5.9 05:32:25 22° NNW 05:32:25 22° NNW 05:37:06 10° NNE visible
04 Aug 6.1 05:21:13 20° N 05:21:13 20° N 05:25:16 10° NNE visible
04 Aug 6.0 21:46:23 10° S 21:46:23 10° S 21:46:23 10° S visible
05 Aug 6.3 05:10:00 18° N 05:10:00 18° N 05:13:24 10° NNE visible
05 Aug 6.6 06:58:34 10° NNW 06:58:59 10° N 06:59:23 10° N visible
05 Aug 5.8 21:34:37 10° S 21:35:32 11° S 21:35:32 11° S visible
06 Aug 6.4 04:58:48 16° N 04:58:48 16° N 05:01:30 10° NNE visible
06 Aug 6.6 06:46:23 10° NNW 06:47:27 10° N 06:48:30 10° N visible
06 Aug 5.6 21:22:52 10° S 21:24:45 13° SSE 21:24:45 13° SSE visible
07 Aug 6.6 04:47:37 14° N 04:47:37 14° N 04:49:35 10° NNE visible
07 Aug 6.6 06:34:19 10° NNW 06:35:55 11° N 06:37:29 10° N visible
07 Aug 5.4 21:11:07 10° S 21:13:44 14° SSE 21:14:02 14° SSE visible
08 Aug 6.7 04:36:27 12° NNE 04:36:27 12° NNE 04:37:39 10° NNE visible
08 Aug 6.6 06:22:17 10° NNW 06:24:23 11° N 06:26:26 10° NNE visible
08 Aug 5.2 20:59:22 10° S 21:02:09 15° SSE 21:03:23 14° SE visible
